Location: Cedar Ridge
(38.0658°N, 120.2769°W)
Time: 22:09:21
(UTC+00:00)

Cosmos 2151 - Pass Details

Date: 10 September 2024
Orbit: 567 x 585 km, 82.5° (Epoch: 12 October)

Event Time Altitude Azimuth Distance (km) Brightness Sun altitude
Rises 12:49:10 0° 351° (N) 2,774 6.5 -10.5°
Reaches altitude 10° 12:51:22 10° 350° (N) 1,873 5.6 -10.1°
Maximum altitude 12:55:29 77° 265° (W) 588 2.8 -9.3°
Drops below altitude 10° 12:59:35 10° 179° (S) 1,865 5.4 -8.5°
Sets 13:01:46 0° 178° (S) 2,761 6.3 -8.1°
